User: anonymous   Login
Location: Lawrence
(38.9720°N, 95.2350°W)
Time: 09:15:54
(UTC-05:00)
Language:

ALOS - Orbit

View from above orbital plane
View from above orbital plane
View from above satellite
View from above satellite

Ground track
Ground track

The orbit data is extracted from the following two-line orbital elements,

1 28931U 06002A   15248.22148152  .00000258  00000-0  60452-4 0  9992
2 28931  97.9263 294.3959 0001255 134.3137 225.8168 14.61957263512337
Epoch (UTC): 05 September 2015 05:18:56
Eccentricity: 0.0001255
inclination: 97.9263°
perigee height: 686 km
apogee height: 688 km
right ascension of ascending node: 294.3959°
argument of perigee: 134.3137°
revolutions per day: 14.61957263
mean anomaly at epoch: 225.8168°
orbit number at epoch: 51233

The dashed part of the orbit path shows where the satellite is in the earth's shadow,  

DLR